St. Louis, MO

9:47 PM CDT on October 17, 2017 (GMT -0500)
Lambert-Saint Louis International

Weather History for KSTL - July, 2014

Change the Weather History Date:

Tuesday, July 8, 2014

  Actual Average Record
Temperature  
Mean Temperature 78 °F 80 °F  
Max Temperature 88 °F 89 °F 101 °F (1980)
Min Temperature 68 °F 71 °F 56 °F (1891)
Degree Days  
Heating Degree Days 0 0  
Month to date heating degree days 0 0  
Since 1 June heating degree days 0 5  
Since 1 July heating degree days 0 0  
Cooling Degree Days 13 15  
Month to date cooling degree days 94 120  
Year to date cooling degree days 754 628  
Since 1 June cooling degree days 492 454  
Growing Degree Days 28 (Base 50)    
Moisture  
Dew Point 65 °F    
Average Humidity 67    
Maximum Humidity 90    
Minimum Humidity 44    
Precipitation  
Precipitation 0.33 in 0.14 in 3.19 in (1898)
Month to date precipitation 0.35 1.06  
Year to date precipitation 22.67 21.71  
Snow  
Snow 0.00 in 0.00 in 0.00 in (2015)
Month to date snowfall 0.0 0.0  
Since 1 June snowfall 0.0 0.0  
Since 1 July snowfall 0.0 0.0  
Snow Depth 0.00 in    
Sea Level Pressure  
Sea Level Pressure 29.84 in    
Wind  
Wind Speed 12 mph (West)    
Max Wind Speed 35 mph    
Max Gust Speed 45 mph    
Visibility 10 miles    
Events Rain , Thunderstorm    
T = Trace of Precipitation, MM = Missing Value Source: NWS Daily Summary

Daily Weather History Graph

Daily Weather History Graph

Search for Another Location

Airport or City:

Trip Planner

Search our weather history database for the weather conditions in past years. The results will help you decide how hot, cold, wet, or windy it might be!

Date:

Astronomy

Jul. 08, 2014 Rise Set
Actual Time 5:44 AM CDT 8:28 PM CDT
Civil Twilight 5:12 AM CDT 9:00 PM CDT
Nautical Twilight 4:33 AM CDT 9:39 PM CDT
Astronomical Twilight 3:48 AM CDT 10:24 PM CDT
Moon 4:37 PM CDT (7/8) 2:15 AM CDT (7/8)
Length of Visible Light 15h 47m
Length of Day
14h 44m
Waxing Gibbous, 81% of the Moon is Illuminated
Jul 8
Waxing Gibbous
Jul 12
Full
Jul 18
Last Quarter
Jul 26
New
Aug 3
First Quarter

Hourly Weather History & Observations

Time (CDT) Temp. Heat Index Dew Point Humidity Pressure Visibility Wind Dir Wind Speed Gust Speed Precip Events Conditions
12:51 AM 81.0 °F 84.9 °F 71.1 °F 72% 29.70 in 10.0 mi SSW 21.9 mph 26.5 mph N/A   Mostly Cloudy
1:18 AM 78.8 °F - 68.0 °F 69% 29.82 in 9.0 mi West 26.5 mph 44.9 mph 0.00 in Rain , Thunderstorm Light Thunderstorms and Rain
1:51 AM 73.0 °F - 66.9 °F 81% 29.76 in 8.0 mi West 23.0 mph 32.2 mph 0.02 in Rain , Thunderstorm Light Thunderstorms and Rain
2:51 AM 71.1 °F - 66.9 °F 87% 29.84 in 6.0 mi West 16.1 mph 26.5 mph 0.14 in Rain Rain
3:17 AM 69.8 °F - 66.2 °F 88% 29.89 in 6.0 mi WSW 19.6 mph - 0.09 in Rain , Thunderstorm Light Thunderstorms and Rain
3:43 AM 69.8 °F - 66.2 °F 88% 29.84 in 8.0 mi WSW 15.0 mph - 0.15 in Rain Light Rain
3:51 AM 70.0 °F - 66.9 °F 90% 29.79 in 9.0 mi WSW 16.1 mph - 0.16 in Rain Light Rain
4:51 AM 69.1 °F - 66.0 °F 90% 29.74 in 10.0 mi Variable 6.9 mph - 0.01 in Rain Light Rain
5:39 AM 69.8 °F - 66.2 °F 88% 29.84 in 10.0 mi West 8.1 mph - 0.00 in   Mostly Cloudy
5:51 AM 69.1 °F - 66.0 °F 90% 29.80 in 10.0 mi West 6.9 mph - 0.00 in   Mostly Cloudy
6:51 AM 69.1 °F - 66.0 °F 90% 29.78 in 10.0 mi WSW 8.1 mph - N/A   Mostly Cloudy
7:51 AM 71.1 °F - 66.0 °F 84% 29.82 in 10.0 mi West 10.4 mph - N/A   Mostly Cloudy
8:51 AM 75.0 °F - 66.0 °F 73% 29.83 in 10.0 mi West 12.7 mph 21.9 mph N/A   Mostly Cloudy
9:51 AM 79.0 °F - 66.9 °F 66% 29.83 in 10.0 mi West 19.6 mph 26.5 mph N/A   Mostly Cloudy
10:51 AM 82.0 °F 84.9 °F 68.0 °F 62% 29.85 in 10.0 mi West 20.7 mph 24.2 mph N/A   Mostly Cloudy
11:03 AM 82.4 °F 85.4 °F 68.0 °F 62% 29.89 in 10.0 mi West 18.4 mph 24.2 mph N/A   Mostly Cloudy
11:29 AM 82.4 °F 85.4 °F 68.0 °F 62% 29.90 in 10.0 mi WNW 13.8 mph - N/A   Mostly Cloudy
11:51 AM 82.0 °F 84.9 °F 68.0 °F 62% 29.86 in 10.0 mi WNW 12.7 mph 21.9 mph N/A   Mostly Cloudy
12:51 PM 84.9 °F 87.6 °F 66.9 °F 55% 29.86 in 10.0 mi West 16.1 mph - N/A   Mostly Cloudy
1:51 PM 84.9 °F 87.1 °F 66.0 °F 53% 29.86 in 10.0 mi NW 11.5 mph 20.7 mph N/A   Mostly Cloudy
2:51 PM 87.1 °F 88.3 °F 64.0 °F 46% 29.86 in 10.0 mi WNW 12.7 mph - N/A   Mostly Cloudy
3:51 PM 84.9 °F 85.9 °F 63.0 °F 48% 29.86 in 10.0 mi NW 16.1 mph 20.7 mph N/A   Mostly Cloudy
4:51 PM 84.9 °F 85.4 °F 62.1 °F 46% 29.87 in 10.0 mi WNW 15.0 mph 21.9 mph N/A   Scattered Clouds
5:51 PM 84.9 °F 84.8 °F 60.1 °F 43% 29.87 in 10.0 mi WNW 12.7 mph 20.7 mph N/A   Partly Cloudy
6:51 PM 84.0 °F 84.0 °F 60.1 °F 44% 29.88 in 10.0 mi WNW 12.7 mph 21.9 mph N/A   Scattered Clouds
7:51 PM 80.1 °F 81.1 °F 61.0 °F 52% 29.88 in 10.0 mi WNW 6.9 mph - N/A   Scattered Clouds
8:51 PM 77.0 °F - 60.8 °F 57% 29.92 in 10.0 mi WNW 5.8 mph - N/A   Scattered Clouds
9:51 PM 75.0 °F - 61.0 °F 62% 29.90 in 10.0 mi WNW 5.8 mph - N/A   Partly Cloudy
10:51 PM 73.9 °F - 61.0 °F 64% 29.91 in 10.0 mi WNW 6.9 mph - N/A   Clear
11:51 PM 73.0 °F - 61.0 °F 66% 29.92 in 10.0 mi WNW 3.5 mph - N/A   Clear